Location: Wanzleben
(52.0609°N, 11.4408°E)
Time: 07:11:30
(UTC+00:00)

Cosmos 1536 Rocket - Pass Details

Date: 18 September 2020
Orbit: 606 x 631 km, 82.5° (Epoch: 19 October)

Event Time Altitude Azimuth Distance (km) Brightness Sun altitude
Rises 18:30:34 0° 352° (N) 2,913 7.4 -11.3°
Reaches altitude 10° 18:32:51 10° 358° (N) 2,006 6.4 -11.6°
Maximum altitude 18:37:11 51° 74° (ENE) 795 3.8 -12.3°
Enters shadow 18:41:17 11° 150° (SSE) 1,911 5.6 -12.9°
